This is the latest recevied weather packets stored in our database for station/object VR2HK-13. If no packets are shown the sender has not sent any weather packets the latest 10 day(s).
| Time | Temp. | Humidity | Pressure | Rain* | Wind** | Luminosity | Snow |
|---|---|---|---|---|---|---|---|
| 1778172854 | 25° C | 84% | 1012.2 hPa | 8.64 mm | - | - | - |
| 1778172622 | 25° C | 83% | 1012.3 hPa | 9.14 mm | - | - | - |
| 1778172543 | 25° C | 83% | 1012.2 hPa | 9.4 mm | - | - | - |
| 1778172322 | 25° C | 83% | 1012.3 hPa | 9.14 mm | - | - | - |
| 1778172235 | 25° C | 83% | 1012.2 hPa | 9.65 mm | - | - | - |
| 1778172023 | 25° C | 83% | 1012.3 hPa | 10.16 mm | - | - | - |
| 1778171923 | 25° C | 83% | 1012.3 hPa | 10.67 mm | - | - | - |
| 1778171722 | 25° C | 83% | 1012.3 hPa | 10.16 mm | - | - | - |
| 1778171614 | 25° C | 83% | 1012.4 hPa | 10.67 mm | - | - | - |
| 1778171423 | 25° C | 83% | 1012.3 hPa | 10.92 mm | - | - | - |
| 1778171122 | 25° C | 83% | 1012.5 hPa | 10.67 mm | - | - | - |
| 1778170993 | 25° C | 83% | 1012.4 hPa | 10.41 mm | - | - | - |
| 1778170822 | 25° C | 83% | 1012.5 hPa | 10.16 mm | - | - | - |
| 1778170522 | 25° C | 83% | 1012.5 hPa | 10.16 mm | - | - | - |
| 1778170373 | 25° C | 83% | 1012.5 hPa | 10.16 mm | - | - | - |
| 1778170222 | 25° C | 83% | 1012.5 hPa | 9.4 mm | - | - | - |
| 1778170064 | 25° C | 83% | 1012.5 hPa | 8.89 mm | - | - | - |
| 1778169922 | 25° C | 83% | 1012.5 hPa | 9.14 mm | - | - | - |
| 1778169753 | 25° C | 83% | 1012.5 hPa | 9.14 mm | - | - | - |
| 1778169622 | 25° C | 83% | 1012.6 hPa | 9.4 mm | - | - | - |
| 1778169444 | 25° C | 83% | 1012.5 hPa | 9.65 mm | - | - | - |
| 1778169322 | 25° C | 83% | 1012.5 hPa | 9.14 mm | - | - | - |
| 1778169133 | 25° C | 82% | 1012.5 hPa | 10.67 mm | - | - | - |
| 1778169022 | 25° C | 82% | 1012.5 hPa | 10.41 mm | - | - | - |
| 1778168823 | 25° C | 82% | 1012.5 hPa | 10.92 mm | - | - | - |
* Rain latest hour (hover to see other rain measurements)
** Current wind speed in m/s (hover to see current wind gust speed)